Location: Dresden
(51.0300°N, 13.7800°E)
Time: 18:44:07
(UTC+01:00)

LES 1 - Visible Passes

Search period start: 18 January 2026 00:00
Search period end: 28 January 2026 00:00
Orbit: 2780 x 2808 km, 32.1° (Epoch: 17 January)

Date Brightness Start Highest point End Pass type
(mag) Time Alt. Az. Time Alt. Az. Time Alt. Az.
18 Jan 11.2 02:44:23 25° SSE 02:44:23 25° SSE 02:51:00 10° SE visible
18 Jan 11.2 05:10:04 17° SW 05:12:44 18° SW 05:21:47 10° S visible
18 Jan 11.4 21:31:43 10° SSW 21:35:11 17° SSW 21:35:11 17° SSW visible
19 Jan12.000:35:29ESE00:35:29ESE00:00:52WSWvisible
19 Jan 11.1 03:01:10 25° SSE 03:01:10 25° SSE 03:08:05 10° SE visible
19 Jan 11.3 05:26:51 13° SW 05:30:00 14° SW 05:36:40 10° SSW visible
19 Jan 11.4 19:22:00 10° SSE 19:26:20 11° SE 19:26:21 11° SE visible
19 Jan 11.4 21:48:26 10° SSW 21:52:03 18° SSW 21:52:03 18° SSW visible
20 Jan 11.2 03:17:57 24° S 03:17:57 24° S 03:24:57 10° SSE visible
20 Jan 11.3 19:35:47 10° S 19:43:13 15° SE 19:43:13 15° SE visible
20 Jan 11.4 22:05:24 10° SW 22:08:54 18° SSW 22:08:54 18° SSW visible
21 Jan 11.2 03:34:45 22° S 03:34:45 22° S 03:41:34 10° SSE visible
21 Jan 11.2 19:51:06 10° S 20:00:04 19° SSE 20:00:04 19° SSE visible
21 Jan 11.5 22:22:32 10° SW 22:25:46 17° SW 22:25:46 17° SW visible
22 Jan 11.3 03:51:35 19° SSW 03:51:35 19° SSW 03:57:52 10° S visible
22 Jan 11.1 20:07:06 10° SSW 20:16:55 23° SSE 20:16:55 23° SSE visible
22 Jan 11.5 22:39:50 10° SW 22:42:36 17° SW 22:42:36 17° SW visible
23 Jan 11.8 01:42:44 10° SE 01:42:44 10° SE 01:42:49 10° SE visible
23 Jan 11.3 04:08:25 16° SSW 04:08:25 16° SSW 04:13:40 10° S visible
23 Jan 11.0 20:23:32 10° SSW 20:33:46 26° SSE 20:33:46 26° SSE visible
23 Jan 11.6 22:57:13 10° WSW 22:59:27 15° SW 22:59:27 15° SW visible
24 Jan 11.7 01:59:34 11° SE 01:59:34 11° SE 01:59:53 10° SE visible
24 Jan 11.4 04:25:16 13° SSW 04:25:16 13° SSW 04:28:38 10° SSW visible
24 Jan 11.5 18:14:05 10° SSE 18:18:08 11° SE 18:22:11 10° ESE visible
24 Jan 10.9 20:40:15 10° SSW 20:50:36 29° S 20:50:36 29° S visible
24 Jan 11.6 23:14:44 10° WSW 23:16:17 14° WSW 23:16:17 14° WSW visible
25 Jan 11.7 02:16:25 11° SSE 02:16:25 11° SSE 02:16:47 10° SSE visible
25 Jan 11.3 18:27:41 10° S 18:35:22 15° SE 18:41:44 11° ESE visible
25 Jan 10.9 20:57:12 10° SW 21:07:25 31° S 21:07:25 31° S visible
25 Jan 11.7 23:32:20 10° WSW 23:33:06 12° WSW 23:33:06 12° WSW visible
26 Jan 11.7 02:33:17 10° SSE 02:33:17 10° SSE 02:33:25 10° SSE visible
26 Jan 11.2 18:42:58 10° S 18:52:39 19° SE 18:58:32 15° ESE visible
26 Jan 10.9 21:14:19 10° SW 21:24:13 32° S 21:24:13 32° S visible
27 Jan 11.1 18:58:57 10° SSW 19:09:57 23° SSE 19:15:21 19° SE visible
27 Jan 10.9 21:31:36 10° SW 21:41:01 32° SSW 21:41:01 32° SSW visible
